CAL220 RKSS-RCTP

Flight info

Callsign CAL220
Flight time N/A
Altitude 38000
Route BULTI2T BULTI Y711 MUGUS Y742 SALMI Q11 DRAKE DRAKE1A
Aircraft B77W/H-SDE1E2E3FGHIJ2J3J4J5M1RWXY/LB1D1

Departure

Time 2026-04-30 14:09
Airport Gimpo International Airport (RKSS)

Arrival

Time N/A
Airport Taiwan Taoyuan International Airport (RCTP)
Time Latitude Longitude Altitude Speed Heading
2026-04-30 13:50 37.55825 126.80181 72 ft 0 kts 44°
2026-04-30 13:59 37.55819 126.80174 61 ft 4 kts 43°
2026-04-30 14:00 37.55801 126.80150 61 ft 4 kts 49°
2026-04-30 14:00 37.55784 126.80112 61 ft 2 kts 102°
2026-04-30 14:00 37.55788 126.80098 61 ft 2 kts 126°
2026-04-30 14:01 37.55795 126.80087 63 ft 2 kts 132°
2026-04-30 14:01 37.55803 126.80077 61 ft 2 kts 134°
2026-04-30 14:01 37.55805 126.80074 62 ft 0 kts 134°
2026-04-30 14:04 37.55789 126.80095 64 ft 11 kts 134°
2026-04-30 14:04 37.55731 126.80168 63 ft 12 kts 135°
2026-04-30 14:05 37.55673 126.80241 61 ft 12 kts 135°
2026-04-30 14:05 37.55615 126.80305 63 ft 8 kts 157°
2026-04-30 14:05 37.55569 126.80293 66 ft 7 kts 209°
2026-04-30 14:05 37.55519 126.80240 61 ft 11 kts 224°
2026-04-30 14:06 37.55460 126.80185 67 ft 10 kts 193°
2026-04-30 14:06 37.55349 126.80285 64 ft 10 kts 134°
2026-04-30 14:07 37.55237 126.80431 64 ft 14 kts 134°
2026-04-30 14:07 37.55186 126.80496 61 ft 8 kts 136°
2026-04-30 14:07 37.55146 126.80507 63 ft 6 kts 189°
2026-04-30 14:08 37.55035 126.80383 58 ft 16 kts 224°
2026-04-30 14:08 37.54959 126.80288 60 ft 14 kts 225°
2026-04-30 14:08 37.54833 126.80105 65 ft 11 kts 266°
2026-04-30 14:09 37.54881 126.80005 57 ft 24 kts 314°
2026-04-30 14:09 37.55155 126.79660 55 ft 107 kts 315°
2026-04-30 14:09 37.57026 126.77327 1713 ft 204 kts 315°
2026-04-30 14:10 37.58060 126.76019 3392 ft 217 kts 315°
2026-04-30 14:10 37.59135 126.74660 4258 ft 228 kts 315°
2026-04-30 14:10 37.60305 126.73181 4886 ft 251 kts 315°
2026-04-30 14:10 37.61468 126.71471 4945 ft 257 kts 298°
2026-04-30 14:11 37.61915 126.69302 4988 ft 262 kts 271°
2026-04-30 14:11 37.61574 126.67055 4999 ft 264 kts 248°
2026-04-30 14:11 37.60514 126.65188 5006 ft 264 kts 227°
2026-04-30 14:11 37.59230 126.63503 4976 ft 266 kts 227°
2026-04-30 14:12 37.57962 126.61806 4978 ft 266 kts 228°
2026-04-30 14:12 37.56659 126.60134 4969 ft 267 kts 218°
2026-04-30 14:12 37.54952 126.59183 5172 ft 272 kts 188°
2026-04-30 14:12 37.53707 126.59029 5761 ft 274 kts 185°
2026-04-30 14:13 37.51173 126.58696 7260 ft 272 kts 186°
2026-04-30 14:13 37.49290 126.58438 8386 ft 272 kts 186°
2026-04-30 14:13 37.47401 126.58183 9463 ft 275 kts 186°
2026-04-30 14:13 37.45361 126.57907 10452 ft 280 kts 186°
2026-04-30 14:14 37.41270 126.57360 11510 ft 321 kts 185°
2026-04-30 14:14 37.36567 126.58135 12066 ft 366 kts 166°
2026-04-30 14:14 37.31557 126.59673 12027 ft 372 kts 166°
2026-04-30 14:14 37.26532 126.61374 14070 ft 376 kts 165°
2026-04-30 14:15 37.21437 126.63068 16043 ft 382 kts 166°
2026-04-30 14:15 37.16235 126.64778 17928 ft 391 kts 165°
2026-04-30 14:15 37.10922 126.66524 19626 ft 397 kts 166°
2026-04-30 14:15 37.05550 126.68287 21310 ft 402 kts 166°
2026-04-30 14:16 37.00082 126.70080 22897 ft 409 kts 166°
2026-04-30 14:16 36.94543 126.71900 24281 ft 415 kts 166°
2026-04-30 14:16 36.88921 126.73830 25495 ft 422 kts 162°
2026-04-30 14:16 36.83442 126.76661 26654 ft 430 kts 158°
2026-04-30 14:17 36.77902 126.79644 27730 ft 436 kts 160°
2026-04-30 14:17 36.72202 126.82384 28749 ft 440 kts 168°
2026-04-30 14:17 36.66112 126.82818 29577 ft 442 kts 181°
2026-04-30 14:17 36.59959 126.82930 30434 ft 444 kts 180°
2026-04-30 14:18 36.53756 126.83166 31216 ft 446 kts 180°
2026-04-30 14:18 36.47551 126.83429 32022 ft 447 kts 180°
2026-04-30 14:18 36.35172 126.83489 33472 ft 447 kts 187°
2026-04-30 14:19 36.22737 126.82041 34776 ft 449 kts 188°
2026-04-30 14:19 36.16515 126.81356 35309 ft 450 kts 188°
2026-04-30 14:19 36.10285 126.80674 35924 ft 449 kts 188°
2026-04-30 14:20 36.04039 126.79994 36463 ft 450 kts 188°
2026-04-30 14:20 35.97801 126.79315 36978 ft 450 kts 188°
2026-04-30 14:20 35.85308 126.77961 37963 ft 451 kts 189°
2026-04-30 14:21 35.72719 126.76605 38003 ft 454 kts 189°
2026-04-30 14:21 35.60413 126.75287 38000 ft 438 kts 189°
2026-04-30 14:22 35.54372 126.74637 38001 ft 433 kts 189°
2026-04-30 14:22 35.36231 126.72704 38033 ft 442 kts 189°
2026-04-30 14:23 35.11398 126.70086 38008 ft 445 kts 190°
2026-04-30 14:24 34.93178 126.68160 38014 ft 433 kts 190°
2026-04-30 14:25 34.68847 126.65595 38022 ft 447 kts 191°
2026-04-30 14:26 34.50235 126.63651 38031 ft 443 kts 191°
2026-04-30 14:27 34.32099 126.61723 38022 ft 433 kts 191°
2026-04-30 14:27 34.20024 126.60431 38045 ft 440 kts 191°
2026-04-30 14:28 34.01580 126.58514 38050 ft 448 kts 191°
2026-04-30 14:28 33.89241 126.57236 38030 ft 440 kts 192°
2026-04-30 14:29 33.80482 126.55172 38027 ft 423 kts 204°
2026-04-30 14:29 33.69463 126.50346 38066 ft 422 kts 205°
2026-04-30 14:30 33.51894 126.42725 38068 ft 435 kts 205°
2026-04-30 14:31 33.42419 126.38636 38052 ft 435 kts 205°
2026-04-30 14:31 33.25572 126.31430 38047 ft 422 kts 206°
2026-04-30 14:32 33.08990 126.24352 38067 ft 425 kts 206°
2026-04-30 14:33 32.97741 126.19565 38072 ft 433 kts 206°
2026-04-30 14:33 32.80684 126.12245 38053 ft 431 kts 206°
2026-04-30 14:34 32.69544 126.07484 38057 ft 421 kts 207°
2026-04-30 14:34 32.58562 126.02795 38083 ft 421 kts 207°
2026-04-30 14:35 32.41867 125.95699 38088 ft 431 kts 207°
2026-04-30 14:36 32.30514 125.90899 38072 ft 432 kts 207°
2026-04-30 14:36 32.19343 125.86190 38067 ft 422 kts 207°
2026-04-30 14:37 32.08352 125.81560 38074 ft 414 kts 208°
2026-04-30 14:37 31.97470 125.76982 38104 ft 418 kts 208°
2026-04-30 14:38 31.86422 125.72320 38100 ft 425 kts 208°
2026-04-30 14:38 31.75234 125.67617 38092 ft 427 kts 208°
2026-04-30 14:39 31.64149 125.62978 38081 ft 418 kts 208°
2026-04-30 14:39 31.53302 125.58446 38089 ft 410 kts 208°
2026-04-30 14:40 31.37199 125.51715 38115 ft 416 kts 208°
2026-04-30 14:40 31.26181 125.47125 38107 ft 422 kts 208°
2026-04-30 14:41 31.15124 125.42538 38091 ft 419 kts 209°
2026-04-30 14:41 31.04277 125.38048 38094 ft 408 kts 209°
2026-04-30 14:42 30.93662 125.33654 38105 ft 403 kts 210°
2026-04-30 14:42 30.82995 125.29245 38126 ft 410 kts 210°
2026-04-30 14:43 30.72237 125.24818 38122 ft 416 kts 210°
2026-04-30 14:43 30.61306 125.20335 38107 ft 413 kts 210°
2026-04-30 14:44 30.50628 125.15961 38125 ft 402 kts 210°
2026-04-30 14:44 30.40163 125.11667 38117 ft 397 kts 210°
2026-04-30 14:45 30.29658 125.07344 38137 ft 404 kts 210°
2026-04-30 14:45 30.19024 125.02987 38145 ft 411 kts 210°
2026-04-30 14:46 30.08205 124.98568 38118 ft 412 kts 210°
2026-04-30 14:46 29.97524 124.94191 38124 ft 401 kts 211°
2026-04-30 14:47 29.87165 124.89748 38126 ft 395 kts 211°
2026-04-30 14:47 29.76762 124.85294 38145 ft 402 kts 211°
2026-04-30 14:48 29.66140 124.80774 38151 ft 410 kts 210°
2026-04-30 14:48 29.55383 124.76213 38133 ft 412 kts 210°
2026-04-30 14:49 29.44708 124.71701 38129 ft 404 kts 210°
2026-04-30 14:49 29.34307 124.67304 38136 ft 398 kts 210°
2026-04-30 14:50 29.18559 124.60659 38164 ft 408 kts 210°
2026-04-30 14:51 29.02331 124.53846 38146 ft 417 kts 209°
2026-04-30 14:51 28.92047 124.48315 38121 ft 398 kts 220°
2026-04-30 14:52 28.87534 124.44710 38149 ft 395 kts 222°
2026-04-30 14:52 28.74092 124.33902 38153 ft 396 kts 221°
2026-04-30 14:53 28.60506 124.23052 38151 ft 399 kts 221°
2026-04-30 14:54 28.42181 124.08471 38150 ft 404 kts 221°
2026-04-30 14:55 28.27807 123.98181 38149 ft 419 kts 211°
2026-04-30 14:56 28.06213 123.87907 38165 ft 422 kts 211°
2026-04-30 14:57 27.89982 123.80172 38163 ft 425 kts 211°
2026-04-30 14:58 27.68134 123.69799 38170 ft 427 kts 210°
2026-04-30 14:58 27.53088 123.59765 38167 ft 416 kts 221°
2026-04-30 15:00 27.29478 123.40646 38165 ft 420 kts 221°
2026-04-30 15:01 27.10403 123.25295 38160 ft 423 kts 221°
2026-04-30 15:01 26.96023 123.13765 38169 ft 425 kts 220°
2026-04-30 15:02 26.86385 123.06057 38165 ft 426 kts 220°
2026-04-30 15:03 26.62166 122.86810 38162 ft 429 kts 220°
2026-04-30 15:04 26.37771 122.67463 38160 ft 431 kts 220°
2026-04-30 15:06 26.13262 122.48093 38153 ft 433 kts 219°
2026-04-30 15:07 25.93483 122.32623 38153 ft 435 kts 219°
2026-04-30 15:08 25.73878 122.17342 35949 ft 428 kts 219°
2026-04-30 15:08 25.60560 122.04130 30737 ft 435 kts 250°
2026-04-30 15:09 25.57356 121.91263 27822 ft 431 kts 256°
2026-04-30 15:09 25.54128 121.78622 25200 ft 420 kts 256°
2026-04-30 15:10 25.50989 121.66429 22568 ft 410 kts 256°
2026-04-30 15:11 25.39922 121.46315 17612 ft 397 kts 233°
2026-04-30 15:11 25.36326 121.41710 16292 ft 392 kts 232°
2026-04-30 15:12 25.31048 121.34973 14531 ft 383 kts 232°
2026-04-30 15:13 25.27565 121.30533 13378 ft 377 kts 232°
2026-04-30 15:14 25.20835 121.21962 11157 ft 362 kts 231°
2026-04-30 15:14 25.16140 121.15994 10644 ft 326 kts 231°
2026-04-30 15:16 25.09326 121.07340 9986 ft 275 kts 231°
2026-04-30 15:17 25.04361 121.01033 8655 ft 270 kts 230°
2026-04-30 15:18 24.98666 120.93813 7146 ft 265 kts 229°
2026-04-30 15:19 24.94271 120.90781 6170 ft 263 kts 175°